Regional Weather Roundup
Issued by NWS

Home | Current Version | Previous Version | Graphics & Text | Print | Product List | Glossary On
Versions: 1 2 3 4 5 6 7 8 9 10 11 12 13 14 15 16 17 18 19 20 21 22 23 24 25 26 27 28 29 30 31 32 33 34 35 36 37 38 39 40 41 42 43 44 45 46 47 48 49 50
000
ASUS43 KIND 301509
RWRIN

WEATHER ROUNDUP FOR INDIANA
NATIONAL WEATHER SERVICE INDIANAPOLIS IN
1100 AM EDT MON MAY 30 2016

NOTE: "FAIR" INDICATES FEW OR NO CLOUDS BELOW 12,000 FEET WITH NO
SIGNIFICANT WEATHER AND/OR OBSTRUCTIONS TO VISIBILITY.

* - STATION DOES NOT REPORT WEATHER SUCH AS PRECIPITATION OR FOG.

+ - STATION NOT QUALITY CONTROLLED BY THE NATIONAL WEATHER SERVICE.
    USE DATA WITH CAUTION...ESPECIALLY DEWPOINT AND RELATIVE
    HUMIDITY OBSERVATIONS.

INZ001>003-010>013-019-020-301600-
NORTHWEST INDIANA

CITY           SKY/WX    TMP DP  RH WIND       PRES   REMARKS
GARY /AIRPORT/ MOSUNNY   81  64  57 SW7       30.04S
KNOX *+        SUNNY     77  45  31 CALM      30.04F
LA PORTE +     SUNNY     78  59  51 CALM      30.04F
MICHIGAN CITY+ SUNNY     73  61  64 CALM      30.04F
MONTICELLO +   SUNNY     80  50  34 W5        30.05S
RENSSELAER +   SUNNY     79  57  47 SW8       30.06S
VALPARAISO     SUNNY     78  58  49 MISG      30.05S

$$

LMZ046-743>745-301600-
SOUTHERN LAKE MICHIGAN

STATION/POSITION TIME  TEMP    WIND        PRES    WAVE
                       AIR SEA DIR/SP/G            HT
                 (UTC) (F)     (DEG/KT/KT) (MB)    (FT)
BURNS HARBOR     1400   70     290/  3/  4 1017.6S
MICHIGAN CITY    1400   68     230/  6/  6   N/A
5NW MICH CITY    1500   67 59  220/  2/  2   N/A     0

$$

INZ004-005-014>016-021>024-301600-
NORTH CENTRAL INDIANA

CITY           SKY/WX    TMP DP  RH WIND       PRES   REMARKS
ELKHART        SUNNY     77  63  61 W5        30.04S
GOSHEN         SUNNY     78  59  51 VRB3      30.03F
LOGANSPORT +   SUNNY     79  55  44 W5        30.07R
PERU/GRISSOM   SUNNY     80  59  48 W8        30.05S
ROCHESTER +    SUNNY     81  61  50 W5        30.05F
SOUTH BEND     SUNNY     77  60  55 CALM      30.04S
WARSAW +       MOSUNNY   79  59  50 W8        30.04F

$$

INZ006>009-017-018-025>027-301600-
NORTHEAST INDIANA

CITY           SKY/WX    TMP DP  RH WIND       PRES   REMARKS
ANGOLA *+        N/A     79  73  83 W7        30.03F
AUBURN +       SUNNY     79  54  41 NW10G16   30.05S
FORT WAYNE     PTSUNNY   80  56  43 W8        30.05F
HUNTINGTON +   SUNNY     78  58  50 W6        30.05S

$$

INZ028-029-035-036-043>045-051>053-301600-
WEST CENTRAL INDIANA

CITY           SKY/WX    TMP DP  RH WIND       PRES   REMARKS
CRAWFORDSVL +  SUNNY     79  56  44 W5        30.09R
GREENCASTLE +  SUNNY     79  63  57 CALM      30.09F
LAFAYETTE      SUNNY     79  55  43 VRB7      30.07R
TERRE HAUTE    SUNNY     79  60  52 VRB3      30.08F

$$

INZ030>032-037>040-046>048-054>057-064-065-301600-
CENTRAL INDIANA

CITY           SKY/WX    TMP DP  RH WIND       PRES   REMARKS
CP ATTERBURY + SUNNY     77  61  57 CALM      30.10R
COLUMBUS       SUNNY     77  59  53 W3        30.08R
FRANKFORT +      N/A     81  40  23 NW6       30.09R
GREENWOOD *+   SUNNY     77  57  50 CALM      30.10R
INDIANAPOLIS   MOSUNNY   78  58  49 W3        30.07R
-EAGLE CREEK   SUNNY     80  58  46 CALM      30.08R
KOKOMO *+      SUNNY     81  57  44 NW8       30.06S
MARION +       CLOUDY    78  56  45 NW7       30.07S
SHELBYVILLE    SUNNY     81  57  43 NW6       30.08R
ZIONSVILLE +   MOSUNNY   77  58  50 CALM      30.09R

$$

INZ033-034-041-042-049-050-058-059-301600-
EAST CENTRAL INDIANA

CITY           SKY/WX    TMP DP  RH WIND       PRES   REMARKS
MUNCIE         CLOUDY    80  56  43 VRB5      30.07S

$$

INZ060-061-067>069-081>083-085>088-301600-
SOUTHWEST INDIANA

CITY           SKY/WX    TMP DP  RH WIND       PRES   REMARKS
EVANSVILLE     SUNNY     81  60  48 NE7       30.08F
HUNTINGBURG *+ SUNNY     79  64  61 CALM      30.08F
WASHINGTON +   SUNNY     78  63  60 CALM      30.08S

$$

INZ062-063-066-070>080-084-089>092-301600-
SOUTH CENTRAL AND SOUTHEAST INDIANA

CITY           SKY/WX    TMP DP  RH WIND       PRES   REMARKS
BLOOMINGTON    SUNNY     80  59  48 VRB5      30.08F
MADISON *+     SUNNY     81  55  41 CALM      30.10R
NORTH VERNON + SUNNY     79  66  65 CALM      30.09R
SEYMOUR +      SUNNY     82  59  44 N3        30.07S

$$





USA.gov is the U.S. government's official web portal to all federal, state and local government web resources and services.